SCP
0 0 -0 -0 0 0 -0 0 -0 0 0 0 0 0 -0 0 0 0 -0 -0 0 0 0 0 0 0 0 0 0 0 1 1 1
0 -0 -0 -0 -0 0 -0 -0 -0 -0 0 0 0 0 0 0 -0 0 0 0 0 0 0 0 0 0 0 0 0 0 0 1 1
0 -0 -0 -0 -0 -0 0 -0 -0 -0 -0 -0 -0 0 0 0 0 0 0 0 0 0 0 0 0 0 0 0 0 0 0 0 0
-0 -0 0 0 0 0 0 0 -0 -0 -0 -0 0 0 0 0 0 0 0 0 0 0 0 0 0 0 0 0 0 0 0 0 0
-0 0 0 0 0 0 0 0 0 0 0 0 0 0 0 0 0 0 0 0 0 0 0 0 0 0 0 0 0 0 0 0 0
0 0 -0 0 0 0 0 0 0 0 0 0 0 0 0 0 0 0 0 0 0 0 0 0 0 0 0 0 0 0 0 0 0
0 0 -0 0 0 0 0 0 0 0 0 0 0 0 0 0 0 0 0 0 0 0 0 0 0 0 0 0 0 0 0 0 0
-0 -0 -0 0 0 0 0 0 0 0 0 0 0 0 0 0 0 0 0 0 0 0 0 0 0 0 0 0 0 0 0 0 0
0 0 0 0 0 0 0 0 0 0 0 0 0 0 0 0 0 0 0 0 0 0 0 0 0 0 0 0 0 0 0 0 0
0 0 0 0 0 0 0 0 0 0 0 0 0 0 0 0 0 0 0 0 0 0 0 0 0 0 0 0 0 0 0 0 0
0 0 0 0 0 0 0 0 0 0 0 0 0 0 0 0 0 0 0 0 0 0 0 0 0 0 0 0 0 0 0 0 0
0 0 1 0 0 0 0 0 0 0 0 0 0 0 0 0 0 0 0 0 0 0 0 0 0 0 0 0 0 0 0 0 0
0 0 0 0 0 0 0 0 0 0 0 0 0 0 0 0 0 0 0 0 0 0 0 0 0 0 0 0 0 0 0 -0 0
0 -0 -0 -0 0 0 0 0 0 0 0 0 0 0 0 0 0 0 0 0 0 0 0 0 0 0 0 0 0 0 0 0 0
-0 -0 -0 0 0 0 0 0 0 0 0 0 0 0 0 0 0 0 0 0 0 0 0 0 0 0 0 0 0 0 0 0 0
-0 -0 0 0 0 0 0 0 0 0 0 0 0 0 0 0 0 0 0 0 0 0 0 0 0 0 0 0 0 0 0 0 0
-0 -0 0 0 0 0 0 0 0 0 0 0 0 0 0 0 0 0 0 0 0 0 0 0 0 0 0 0 0 0 0 0 0
-0 0 0 0 0 0 0 0 0 0 0 0 0 0 0 0 0 0 0 0 0 0 0 0 0 0 0 0 0 0 0 0 0
0 0 0 0 0 0 0 0 0 0 0 0 0 0 0 0 0 0 0 0 0 0 0 0 0 0 0 0 0 0 0 0 0
0 0 0 0 0 0 0 0 0 0 0 0 0 0 0 0 0 0 0 0 0 0 0 0 0 0 0 0 -0 0 0 0 0
Wind_Speed_500mb
33 39 37 32 28 22 21 22 18 18 24 13 18 27 15 10 28 23 24 11 14 16 20 23 27 27 26 26 28 28 26 26 26
30 32 31 31 26 20 18 20 19 15 9 11 9 13 15 15 14 16 14 10 12 18 23 24 28 28 30 33 35 34 33 29 31
27 29 29 28 24 19 18 18 16 14 17 24 27 24 23 21 15 3 5 10 15 20 22 24 27 28 29 28 29 34 35 28 27
32 31 31 30 25 21 20 18 24 21 24 27 26 22 16 13 11 10 10 11 15 17 22 22 22 20 18 20 21 23 23 25 24
34 32 30 28 28 28 26 26 29 29 27 25 17 8 8 10 11 11 10 10 14 16 17 17 18 17 15 16 18 18 20 19 20
37 38 36 33 31 30 32 31 30 27 24 20 17 14 13 11 11 12 11 11 11 13 15 14 14 15 14 15 20 21 21 21 22
41 39 38 37 34 31 33 33 32 30 26 21 18 13 10 9 9 8 9 10 12 12 13 14 14 14 17 18 21 26 26 24 23
43 43 41 43 43 41 38 36 33 28 24 20 14 12 8 8 10 12 12 14 18 20 21 21 21 20 21 20 25 31 31 29 25
46 45 46 45 42 40 38 35 32 28 22 14 7 6 7 10 11 11 15 18 18 17 19 21 24 25 26 28 25 31 31 30 25
49 49 48 47 44 40 36 34 31 25 16 9 3 4 8 9 11 15 17 17 19 22 21 21 22 24 24 28 38 38 36 29 25
48 51 50 46 42 39 37 34 28 20 12 5 10 15 16 14 14 14 14 18 19 18 16 19 21 23 25 26 40 43 43 36 28
50 53 48 45 42 41 40 33 27 17 15 16 18 16 15 14 14 15 15 16 15 12 12 13 15 18 25 30 35 42 44 35 29
51 50 47 47 45 42 37 31 24 17 16 16 17 16 14 14 17 17 17 12 10 8 10 12 11 15 18 26 25 38 42 42 32
52 54 52 50 47 41 35 29 22 17 14 16 17 16 16 16 16 14 12 10 8 8 9 11 14 15 16 15 23 25 36 39 32
60 58 55 49 46 40 33 26 20 19 20 20 20 23 20 17 14 10 5 5 5 7 11 14 16 16 15 14 16 22 27 32 35
59 58 53 48 44 40 31 26 22 24 24 23 24 23 19 14 10 4 2 1 2 8 11 12 13 13 13 14 18 21 32 35 38
59 56 54 48 44 38 32 26 23 23 25 26 23 19 15 10 6 4 1 2 2 5 9 11 13 13 14 16 18 21 23 23 25
59 56 51 45 39 34 31 27 25 26 27 25 20 16 15 11 8 10 6 5 2 7 14 18 18 15 16 17 18 23 27 26 22
58 55 49 43 37 33 31 29 28 26 26 23 20 19 17 14 11 5 1 5 10 17 20 20 21 18 19 19 25 25 27 29 27
55 51 47 41 37 34 31 29 28 28 26 23 23 23 19 12 6 2 6 10 14 16 17 19 20 20 16 16 18 27 29 32 32
Wind_Direction_500mb
184 185 189 182 166 157 143 137 147 167 161 179 203 229 232 242 246 249 276 255 276 285 285 286 290 296 294 280 276 272 275 276 277
165 177 181 181 174 165 149 139 143 174 193 213 186 172 168 168 202 227 216 254 293 298 300 305 301 294 288 289 288 287 276 281 271
161 162 167 170 173 169 150 155 169 145 134 134 141 132 130 127 121 100 339 318 305 300 303 310 311 311 306 300 294 286 285 281 289
157 161 161 157 156 155 151 143 143 154 135 130 123 118 96 76 51 22 4 326 319 326 319 316 313 312 319 322 317 309 304 300 309
155 155 155 155 151 139 135 141 141 139 140 139 143 115 65 45 29 27 4 344 335 330 328 336 348 349 348 345 352 342 333 329 327
151 151 148 146 141 142 144 149 141 142 139 142 127 104 94 82 45 16 2 358 4 7 9 4 358 1 4 1 348 347 343 334 335
155 153 151 149 142 138 133 137 137 137 133 128 120 119 95 49 22 45 56 50 45 35 33 34 32 24 21 22 11 2 2 352 343
156 155 154 151 146 143 139 138 137 136 136 130 118 108 76 45 55 65 69 68 68 65 65 59 59 53 46 43 18 6 7 9 2
163 162 157 153 150 147 148 146 143 141 136 133 116 59 62 76 77 78 83 81 73 74 71 68 65 59 52 45 29 17 15 19 5
166 164 160 157 155 155 155 149 145 148 148 108 67 91 100 98 99 104 102 100 95 85 77 71 63 57 53 40 35 26 24 32 16
165 164 160 158 159 158 152 148 148 138 130 118 106 108 110 112 115 117 109 106 97 89 77 65 58 50 46 37 28 24 24 37 23
166 164 161 159 161 156 153 152 149 142 128 122 118 119 118 115 121 129 122 111 93 83 64 47 39 36 33 32 21 21 22 36 20
162 161 160 158 157 155 153 152 150 138 133 129 130 131 126 117 117 127 120 105 83 49 30 7 18 17 18 12 19 14 17 27 20
162 159 158 158 158 157 155 152 148 144 164 147 143 135 128 126 129 123 110 83 55 24 5 2 1 4 360 351 354 2 9 12 19
158 156 159 159 157 156 153 158 170 163 152 154 149 146 140 133 126 124 91 69 32 350 354 358 1 3 14 356 347 342 356 5 7
157 157 156 160 160 152 156 171 160 157 158 153 149 146 140 133 119 115 69 57 340 18 351 3 7 8 9 3 1 359 345 353 356
157 157 158 161 159 157 158 163 155 161 155 153 151 149 140 132 121 104 112 110 358 359 347 347 347 347 350 354 357 355 358 351 352
156 157 158 159 160 160 158 155 156 157 156 155 152 147 142 131 119 115 106 91 17 330 316 315 309 315 322 329 334 330 339 345 345
155 157 156 155 161 161 157 155 157 163 164 162 155 148 137 144 140 136 24 332 332 324 340 333 333 317 320 311 310 321 317 318 328
155 155 153 158 159 161 156 158 161 165 165 163 159 153 155 149 146 239 306 316 311 308 318 334 2 12 9 342 318 304 315 319 309
Wind_Speed_850mb
33 39 37 32 28 22 21 22 18 18 24 13 18 27 15 10 28 23 24 11 14 16 20 23 27 27 26 26 28 28 26 26 26
30 32 31 31 26 20 18 20 19 15 9 11 9 13 15 15 14 16 14 10 12 18 23 24 28 28 30 33 35 34 33 29 31
27 29 29 28 24 19 18 18 16 14 17 24 27 24 23 21 15 3 5 10 15 20 22 24 27 28 29 28 29 34 35 28 27
32 31 31 30 25 21 20 18 24 21 24 27 26 22 16 13 11 10 10 11 15 17 22 22 22 20 18 20 21 23 23 25 24
34 32 30 28 28 28 26 26 29 29 27 25 17 8 8 10 11 11 10 10 14 16 17 17 18 17 15 16 18 18 20 19 20
37 38 36 33 31 30 32 31 30 27 24 20 17 14 13 11 11 12 11 11 11 13 15 14 14 15 14 15 20 21 21 21 22
41 39 38 37 34 31 33 33 32 30 26 21 18 13 10 9 9 8 9 10 12 12 13 14 14 14 17 18 21 26 26 24 23
43 43 41 43 43 41 38 36 33 28 24 20 14 12 8 8 10 12 12 14 18 20 21 21 21 20 21 20 25 31 31 29 25
46 45 46 45 42 40 38 35 32 28 22 14 7 6 7 10 11 11 15 18 18 17 19 21 24 25 26 28 25 31 31 30 25
49 49 48 47 44 40 36 34 31 25 16 9 3 4 8 9 11 15 17 17 19 22 21 21 22 24 24 28 38 38 36 29 25
48 51 50 46 42 39 37 34 28 20 12 5 10 15 16 14 14 14 14 18 19 18 16 19 21 23 25 26 40 43 43 36 28
50 53 48 45 42 41 40 33 27 17 15 16 18 16 15 14 14 15 15 16 15 12 12 13 15 18 25 30 35 42 44 35 29
51 50 47 47 45 42 37 31 24 17 16 16 17 16 14 14 17 17 17 12 10 8 10 12 11 15 18 26 25 38 42 42 32
52 54 52 50 47 41 35 29 22 17 14 16 17 16 16 16 16 14 12 10 8 8 9 11 14 15 16 15 23 25 36 39 32
60 58 55 49 46 40 33 26 20 19 20 20 20 23 20 17 14 10 5 5 5 7 11 14 16 16 15 14 16 22 27 32 35
59 58 53 48 44 40 31 26 22 24 24 23 24 23 19 14 10 4 2 1 2 8 11 12 13 13 13 14 18 21 32 35 38
59 56 54 48 44 38 32 26 23 23 25 26 23 19 15 10 6 4 1 2 2 5 9 11 13 13 14 16 18 21 23 23 25
59 56 51 45 39 34 31 27 25 26 27 25 20 16 15 11 8 10 6 5 2 7 14 18 18 15 16 17 18 23 27 26 22
58 55 49 43 37 33 31 29 28 26 26 23 20 19 17 14 11 5 1 5 10 17 20 20 21 18 19 19 25 25 27 29 27
55 51 47 41 37 34 31 29 28 28 26 23 23 23 19 12 6 2 6 10 14 16 17 19 20 20 16 16 18 27 29 32 32
Wind_Direction_850mb
184 185 189 182 166 157 143 137 147 167 161 179 203 229 232 242 246 249 276 255 276 285 285 286 290 296 294 280 276 272 275 276 277
165 177 181 181 174 165 149 139 143 174 193 213 186 172 168 168 202 227 216 254 293 298 300 305 301 294 288 289 288 287 276 281 271
161 162 167 170 173 169 150 155 169 145 134 134 141 132 130 127 121 100 339 318 305 300 303 310 311 311 306 300 294 286 285 281 289
157 161 161 157 156 155 151 143 143 154 135 130 123 118 96 76 51 22 4 326 319 326 319 316 313 312 319 322 317 309 304 300 309
155 155 155 155 151 139 135 141 141 139 140 139 143 115 65 45 29 27 4 344 335 330 328 336 348 349 348 345 352 342 333 329 327
151 151 148 146 141 142 144 149 141 142 139 142 127 104 94 82 45 16 2 358 4 7 9 4 358 1 4 1 348 347 343 334 335
155 153 151 149 142 138 133 137 137 137 133 128 120 119 95 49 22 45 56 50 45 35 33 34 32 24 21 22 11 2 2 352 343
156 155 154 151 146 143 139 138 137 136 136 130 118 108 76 45 55 65 69 68 68 65 65 59 59 53 46 43 18 6 7 9 2
163 162 157 153 150 147 148 146 143 141 136 133 116 59 62 76 77 78 83 81 73 74 71 68 65 59 52 45 29 17 15 19 5
166 164 160 157 155 155 155 149 145 148 148 108 67 91 100 98 99 104 102 100 95 85 77 71 63 57 53 40 35 26 24 32 16
165 164 160 158 159 158 152 148 148 138 130 118 106 108 110 112 115 117 109 106 97 89 77 65 58 50 46 37 28 24 24 37 23
166 164 161 159 161 156 153 152 149 142 128 122 118 119 118 115 121 129 122 111 93 83 64 47 39 36 33 32 21 21 22 36 20
162 161 160 158 157 155 153 152 150 138 133 129 130 131 126 117 117 127 120 105 83 49 30 7 18 17 18 12 19 14 17 27 20
162 159 158 158 158 157 155 152 148 144 164 147 143 135 128 126 129 123 110 83 55 24 5 2 1 4 360 351 354 2 9 12 19
158 156 159 159 157 156 153 158 170 163 152 154 149 146 140 133 126 124 91 69 32 350 354 358 1 3 14 356 347 342 356 5 7
157 157 156 160 160 152 156 171 160 157 158 153 149 146 140 133 119 115 69 57 340 18 351 3 7 8 9 3 1 359 345 353 356
157 157 158 161 159 157 158 163 155 161 155 153 151 149 140 132 121 104 112 110 358 359 347 347 347 347 350 354 357 355 358 351 352
156 157 158 159 160 160 158 155 156 157 156 155 152 147 142 131 119 115 106 91 17 330 316 315 309 315 322 329 334 330 339 345 345
155 157 156 155 161 161 157 155 157 163 164 162 155 148 137 144 140 136 24 332 332 324 340 333 333 317 320 311 310 321 317 318 328
155 155 153 158 159 161 156 158 161 165 165 163 159 153 155 149 146 239 306 316 311 308 318 334 2 12 9 342 318 304 315 319 309